When you browse on this site, cookies collect data to enhance your experience and personalize the content and advertising you see.
Visit our Privacy Policy to learn more. By continuing to use the site, you agree to this use of cookies and data.
  • In Sweden
  • List of Countries
  • For 7 days
  • Water Temperature
  • Satellite Maps
  • Weather Map
  • Weather Widgets
  • user-avatar
    Login

    Hourly Weather Krasnoarmeyka

    Today, 23 April, Tuesday

    Time Temperature Precipitation Wind Pressure Humidity
    00:00 +7°C° 0 mm 1 mps 755 mmHg 45%
    01:00 +7°C° 0 mm 1 mps 755 mmHg 48%
    02:00 +5°C° 0 mm 0 mps 755 mmHg 50%
    03:00 +6°C° 0 mm 1 mps 755 mmHg 51%
    04:00 +5°C° 0 mm 1 mps 754 mmHg 52%
    05:00 +4°C° 0 mm 2 mps 754 mmHg 49%
    06:00 +6°C° 0 mm 2 mps 754 mmHg 45%
    07:00 +7°C° 0 mm 2 mps 754 mmHg 41%
    08:00 +9°C° 0 mm 2 mps 754 mmHg 37%
    09:00 +10°C° 0 mm 2 mps 753 mmHg 34%
    10:00 +12°C° 0 mm 2 mps 753 mmHg 32%
    11:00 +12°C° 0 mm 2 mps 753 mmHg 30%
    12:00 +11°C° 0 mm 3 mps 752 mmHg 31%
    13:00 +12°C° 0 mm 3 mps 752 mmHg 32%
    14:00 +12°C° 0 mm 3 mps 752 mmHg 32%
    15:00 +11°C° 0.2 mm 3 mps 751 mmHg 38%
    16:00 +12°C° 0.2 mm 2 mps 751 mmHg 43%
    17:00 +10°C° 0.2 mm 2 mps 751 mmHg 48%
    18:00 +9°C° 0.2 mm 2 mps 751 mmHg 54%
    19:00 +8°C° 0.2 mm 2 mps 751 mmHg 60%
    20:00 +7°C° 0.2 mm 2 mps 751 mmHg 66%
    21:00 +7°C° 0 mm 2 mps 751 mmHg 69%
    22:00 +6°C° 0 mm 2 mps 751 mmHg 72%
    23:00 +6°C° 0 mm 2 mps 751 mmHg 75%

    Tomorrow, 24 April, Wednesday

    Time Temperature Precipitation Wind Pressure Humidity
    00:00 +5°C° 0 mm 2 mps 750 mmHg 76%
    01:00 +5°C° 0 mm 2 mps 750 mmHg 76%
    02:00 +5°C° 0 mm 2 mps 750 mmHg 76%
    03:00 +4°C° 0 mm 3 mps 750 mmHg 73%
    04:00 +4°C° 0 mm 3 mps 750 mmHg 70%
    05:00 +4°C° 0 mm 3 mps 750 mmHg 66%
    06:00 +7°C° 0 mm 3 mps 750 mmHg 61%
    07:00 +9°C° 0 mm 3 mps 750 mmHg 55%
    08:00 +10°C° 0 mm 3 mps 750 mmHg 49%
    09:00 +12°C° 0 mm 4 mps 749 mmHg 46%
    10:00 +13°C° 0 mm 5 mps 749 mmHg 43%
    11:00 +15°C° 0 mm 5 mps 749 mmHg 40%
    12:00 +15°C° 0 mm 5 mps 749 mmHg 38%
    13:00 +16°C° 0 mm 5 mps 748 mmHg 36%
    14:00 +16°C° 0 mm 5 mps 748 mmHg 34%
    15:00 +16°C° 0 mm 5 mps 748 mmHg 33%
    16:00 +16°C° 0 mm 5 mps 747 mmHg 33%
    17:00 +17°C° 0 mm 4 mps 747 mmHg 33%
    18:00 +15°C° 0 mm 4 mps 747 mmHg 36%
    19:00 +14°C° 0 mm 4 mps 747 mmHg 39%
    20:00 +13°C° 0 mm 3 mps 746 mmHg 43%
    21:00 +12°C° 0 mm 3 mps 746 mmHg 44%
    22:00 +11°C° 0 mm 3 mps 746 mmHg 46%
    23:00 +11°C° 0 mm 4 mps 745 mmHg 47%

    Day after tomorrow, 25 April, Thursday

    Time Temperature Precipitation Wind Pressure Humidity
    00:00 +11°C° 0 mm 3 mps 745 mmHg 47%
    01:00 +11°C° 0 mm 3 mps 745 mmHg 47%
    02:00 +11°C° 0 mm 3 mps 744 mmHg 47%
    03:00 +10°C° 0 mm 3 mps 744 mmHg 49%
    04:00 +10°C° 0 mm 4 mps 744 mmHg 50%
    05:00 +8°C° 0 mm 4 mps 744 mmHg 52%
    06:00 +10°C° 0 mm 4 mps 744 mmHg 50%
    07:00 +12°C° 0 mm 5 mps 744 mmHg 47%
    08:00 +13°C° 0 mm 6 mps 744 mmHg 45%
    09:00 +14°C° 0 mm 6 mps 744 mmHg 42%
    10:00 +15°C° 0 mm 7 mps 744 mmHg 40%
    11:00 +15°C° 0 mm 8 mps 744 mmHg 38%
    12:00 +15°C° 0 mm 9 mps 744 mmHg 37%
    13:00 +16°C° 0 mm 9 mps 744 mmHg 36%
    14:00 +16°C° 0 mm 9 mps 744 mmHg 36%
    15:00 +15°C° 0 mm 9 mps 744 mmHg 37%
    16:00 +15°C° 0 mm 8 mps 744 mmHg 39%
    17:00 +15°C° 0 mm 7 mps 744 mmHg 41%
    18:00 +14°C° 0.2 mm 6 mps 744 mmHg 48%
    19:00 +13°C° 0.2 mm 5 mps 744 mmHg 55%
    20:00 +12°C° 0.2 mm 4 mps 744 mmHg 62%
    21:00 +10°C° 0.2 mm 5 mps 744 mmHg 63%
    22:00 +10°C° 0.2 mm 6 mps 744 mmHg 64%
    23:00 +10°C° 0.2 mm 8 mps 743 mmHg 65%

    26 April, Friday

    Time Temperature Precipitation Wind Pressure Humidity
    00:00 +9°C° 0.1 mm 8 mps 743 mmHg 66%
    01:00 +9°C° 0.1 mm 7 mps 743 mmHg 68%
    02:00 +8°C° 0.1 mm 7 mps 743 mmHg 69%
    03:00 +8°C° 0 mm 7 mps 743 mmHg 71%
    04:00 +7°C° 0 mm 6 mps 743 mmHg 73%
    05:00 +7°C° 0 mm 6 mps 743 mmHg 75%
    06:00 +7°C° 0 mm 6 mps 744 mmHg 71%
    07:00 +8°C° 0 mm 6 mps 744 mmHg 67%
    08:00 +8°C° 0 mm 6 mps 744 mmHg 63%
    09:00 +9°C° 0.2 mm 6 mps 745 mmHg 61%
    10:00 +9°C° 0.2 mm 6 mps 745 mmHg 58%
    11:00 +9°C° 0.2 mm 6 mps 745 mmHg 56%
    12:00 +9°C° 0.4 mm 7 mps 746 mmHg 58%
    13:00 +9°C° 0.4 mm 7 mps 746 mmHg 59%
    14:00 +7°C° 0.4 mm 8 mps 746 mmHg 61%
    15:00 +6°C° 0 mm 7 mps 746 mmHg 62%
    16:00 +5°C° 0 mm 7 mps 747 mmHg 62%
    17:00 +4°C° 0 mm 6 mps 747 mmHg 63%
    18:00 +3°C° 0 mm 6 mps 748 mmHg 62%
    19:00 +3°C° 0 mm 5 mps 749 mmHg 61%
    20:00 +3°C° 0 mm 4 mps 750 mmHg 59%
    21:00 +3°C° 0 mm 3 mps 750 mmHg 59%
    22:00 +4°C° 0 mm 2 mps 750 mmHg 59%
    23:00 +5°C° 0 mm 1 mps 750 mmHg 58%

    27 April, Saturday

    Time Temperature Precipitation Wind Pressure Humidity
    00:00 +4°C° 0 mm 1 mps 750 mmHg 60%
    01:00 +3°C° 0 mm 2 mps 750 mmHg 62%
    02:00 +2°C° 0 mm 2 mps 749 mmHg 64%
    03:00 +2°C° 0 mm 2 mps 749 mmHg 65%
    04:00 +2°C° 0 mm 2 mps 748 mmHg 66%
    05:00 +2°C° 0 mm 2 mps 748 mmHg 68%
    06:00 +3°C° 0 mm 2 mps 748 mmHg 63%
    07:00 +3°C° 0 mm 3 mps 747 mmHg 59%
    08:00 +4°C° 0 mm 3 mps 747 mmHg 55%
    09:00 +5°C° 0 mm 3 mps 747 mmHg 51%
    10:00 +6°C° 0 mm 4 mps 747 mmHg 48%
    11:00 +8°C° 0 mm 5 mps 747 mmHg 45%
    12:00 +6°C° 0.2 mm 7 mps 747 mmHg 46%
    13:00 +6°C° 0.2 mm 8 mps 747 mmHg 47%
    14:00 +5°C° 0.2 mm 10 mps 748 mmHg 49%
    15:00 +5°C° 0 mm 10 mps 749 mmHg 45%
    16:00 +3°C° 0 mm 9 mps 750 mmHg 41%
    17:00 +2°C° 0 mm 9 mps 750 mmHg 38%
    18:00 +2°C° 0 mm 7 mps 751 mmHg 40%
    19:00 +1°C° 0 mm 5 mps 753 mmHg 43%
    20:00 0°C° 0 mm 4 mps 754 mmHg 46%
    21:00 +1°C° 0 mm 3 mps 754 mmHg 49%
    22:00 0°C° 0 mm 3 mps 755 mmHg 51%
    23:00 +1°C° 0 mm 2 mps 756 mmHg 53%

    28 April, Sunday

    Time Temperature Precipitation Wind Pressure Humidity
    00:00 -1°C° 0 mm 2 mps 756 mmHg 54%
    01:00 -1°C° 0 mm 2 mps 756 mmHg 55%
    02:00 -1°C° 0 mm 3 mps 756 mmHg 56%
    03:00 -1°C° 0 mm 3 mps 756 mmHg 56%
    04:00 -2°C° 0 mm 4 mps 757 mmHg 55%
    05:00 -2°C° 0 mm 4 mps 757 mmHg 54%
    06:00 0°C° 0 mm 5 mps 756 mmHg 48%
    07:00 +2°C° 0 mm 6 mps 756 mmHg 42%
    08:00 +4°C° 0 mm 8 mps 756 mmHg 36%
    09:00 +5°C° 0 mm 8 mps 756 mmHg 33%
    10:00 +7°C° 0 mm 8 mps 755 mmHg 31%
    11:00 +9°C° 0 mm 8 mps 755 mmHg 28%
    12:00 +11°C° 0 mm 8 mps 754 mmHg 28%
    13:00 +12°C° 0 mm 8 mps 753 mmHg 28%
    14:00 +13°C° 0 mm 8 mps 752 mmHg 27%
    15:00 +13°C° 0 mm 8 mps 751 mmHg 28%
    16:00 +13°C° 0 mm 8 mps 751 mmHg 29%
    17:00 +15°C° 0 mm 8 mps 750 mmHg 30%
    18:00 +13°C° 0 mm 8 mps 750 mmHg 33%
    19:00 +12°C° 0 mm 7 mps 749 mmHg 37%
    20:00 +11°C° 0 mm 7 mps 749 mmHg 41%
    21:00 +11°C° 0 mm 7 mps 749 mmHg 42%
    22:00 +11°C° 0 mm 8 mps 748 mmHg 43%
    23:00 +11°C° 0 mm 9 mps 747 mmHg 43%
    Show more